Time,TemperatureF,DewpointF,PressureIn,WindDirection,WindDirectionDegrees,WindSpeedMPH,WindSpeedGustMPH,Humidity,HourlyPrecipIn,Conditions,Clouds,dailyrainin,SoftwareType,DateUTC
2013-05-30 00:22:00,64.0,27.0,-100.00,North,-999,-999.0,-999.0,24,0.00,,,-99.99,,2013-05-30 07:22:00,
2013-05-30 00:32:00,64.0,27.0,-100.00,North,-999,-999.0,-999.0,24,0.00,,,-99.99,,2013-05-30 07:32:00,
2013-05-30 01:00:00,68.0,33.0,-100.00,North,-999,-999.0,-999.0,27,0.00,,,-99.99,,2013-05-30 08:00:00,
2013-05-30 01:22:00,68.0,33.0,-100.00,North,-999,-999.0,-999.0,27,0.00,,,-99.99,,2013-05-30 08:22:00,
2013-05-30 01:32:00,68.0,33.0,-100.00,North,-999,-999.0,-999.0,27,0.00,,,-99.99,,2013-05-30 08:32:00,
2013-05-30 01:42:00,68.0,33.0,-100.00,North,-999,-999.0,-999.0,27,0.00,,,-99.99,,2013-05-30 08:42:00,
2013-05-30 01:53:00,68.0,33.0,-100.00,North,-999,-999.0,-999.0,27,0.00,,,-99.99,,2013-05-30 08:53:00,
2013-05-30 02:22:00,61.0,33.0,-100.00,North,-999,-999.0,-999.0,34,0.00,,,-99.99,,2013-05-30 09:22:00,
2013-05-30 02:33:00,61.0,33.0,-100.00,North,-999,-999.0,-999.0,34,0.00,,,-99.99,,2013-05-30 09:33:00,
2013-05-30 03:23:00,59.0,42.0,-100.00,North,-999,-999.0,-999.0,52,0.00,,,-99.99,,2013-05-30 10:23:00,
2013-05-30 03:33:00,59.0,42.0,-100.00,North,-999,-999.0,-999.0,52,0.00,,,-99.99,,2013-05-30 10:33:00,
2013-05-30 04:22:00,57.0,43.0,-100.00,North,-999,-999.0,-999.0,59,0.00,,,-99.99,,2013-05-30 11:22:00,
2013-05-30 04:32:00,57.0,43.0,-100.00,North,-999,-999.0,-999.0,59,0.00,,,-99.99,,2013-05-30 11:32:00,
2013-05-30 05:22:00,53.0,40.0,-100.00,North,-999,-999.0,-999.0,60,0.00,,,-99.99,,2013-05-30 12:22:00,
2013-05-30 05:32:00,53.0,40.0,-100.00,North,-999,-999.0,-999.0,60,0.00,,,-99.99,,2013-05-30 12:32:00,
2013-05-30 06:22:00,51.0,39.0,-100.00,North,-999,-999.0,-999.0,64,0.00,,,-99.99,,2013-05-30 13:22:00,
2013-05-30 06:32:00,51.0,39.0,-100.00,North,-999,-999.0,-999.0,64,0.00,,,-99.99,,2013-05-30 13:32:00,
2013-05-30 07:00:00,64.0,49.0,-100.00,North,-999,-999.0,-999.0,59,0.00,,,-99.99,,2013-05-30 14:00:00,
2013-05-30 07:22:00,64.0,49.0,-100.00,North,-999,-999.0,-999.0,59,0.00,,,-99.99,,2013-05-30 14:22:00,
2013-05-30 07:32:00,64.0,49.0,-100.00,North,-999,-999.0,-999.0,59,0.00,,,-99.99,,2013-05-30 14:32:00,
2013-05-30 07:42:00,64.0,49.0,-100.00,North,-999,-999.0,-999.0,59,0.00,,,-99.99,,2013-05-30 14:42:00,
2013-05-30 07:52:00,64.0,49.0,-100.00,North,-999,-999.0,-999.0,59,0.00,,,-99.99,,2013-05-30 14:52:00,
2013-05-30 08:00:00,73.0,50.0,-100.00,North,-999,-999.0,-999.0,43,0.00,,,-99.99,,2013-05-30 15:00:00,
2013-05-30 08:33:00,73.0,50.0,-100.00,North,-999,-999.0,-999.0,43,0.00,,,-99.99,,2013-05-30 15:33:00,
2013-05-30 08:42:00,73.0,50.0,-100.00,North,-999,-999.0,-999.0,43,0.00,,,-99.99,,2013-05-30 15:42:00,
2013-05-30 08:52:00,73.0,50.0,-100.00,North,-999,-999.0,-999.0,43,0.00,,,-99.99,,2013-05-30 15:52:00,
2013-05-30 09:00:00,77.0,42.0,-100.00,North,-999,-999.0,-999.0,28,0.00,,,-99.99,,2013-05-30 16:00:00,
2013-05-30 09:23:00,77.0,42.0,-100.00,North,-999,-999.0,-999.0,28,0.00,,,-99.99,,2013-05-30 16:23:00,
2013-05-30 09:33:00,77.0,42.0,-100.00,North,-999,-999.0,-999.0,28,0.00,,,-99.99,,2013-05-30 16:33:00,
2013-05-30 09:42:00,77.0,42.0,-100.00,North,-999,-999.0,-999.0,28,0.00,,,-99.99,,2013-05-30 16:42:00,
2013-05-30 09:52:00,77.0,42.0,-100.00,North,-999,-999.0,-999.0,28,0.00,,,-99.99,,2013-05-30 16:52:00,
2013-05-30 10:00:00,81.0,37.0,-100.00,North,-999,-999.0,-999.0,20,0.00,,,-99.99,,2013-05-30 17:00:00,
2013-05-30 10:22:00,81.0,37.0,-100.00,North,-999,-999.0,-999.0,20,0.00,,,-99.99,,2013-05-30 17:22:00,
2013-05-30 10:32:00,81.0,37.0,-100.00,North,-999,-999.0,-999.0,20,0.00,,,-99.99,,2013-05-30 17:32:00,
2013-05-30 10:42:00,81.0,37.0,-100.00,North,-999,-999.0,-999.0,20,0.00,,,-99.99,,2013-05-30 17:42:00,
2013-05-30 10:52:00,81.0,37.0,-100.00,North,-999,-999.0,-999.0,20,0.00,,,-99.99,,2013-05-30 17:52:00,
2013-05-30 11:00:00,85.0,33.0,-100.00,North,-999,-999.0,-999.0,15,0.00,,,-99.99,,2013-05-30 18:00:00,
2013-05-30 11:22:00,85.0,33.0,-100.00,North,-999,-999.0,-999.0,15,0.00,,,-99.99,,2013-05-30 18:22:00,
2013-05-30 11:32:00,85.0,33.0,-100.00,North,-999,-999.0,-999.0,15,0.00,,,-99.99,,2013-05-30 18:32:00,
2013-05-30 11:43:00,85.0,33.0,-100.00,North,-999,-999.0,-999.0,15,0.00,,,-99.99,,2013-05-30 18:43:00,
2013-05-30 11:52:00,85.0,33.0,-100.00,North,-999,-999.0,-999.0,15,0.00,,,-99.99,,2013-05-30 18:52:00,
2013-05-30 12:00:00,88.0,32.0,-100.00,North,-999,-999.0,-999.0,13,0.00,,,-99.99,,2013-05-30 19:00:00,
2013-05-30 12:23:00,88.0,32.0,-100.00,North,-999,-999.0,-999.0,13,0.00,,,-99.99,,2013-05-30 19:23:00,
2013-05-30 12:32:00,88.0,32.0,-100.00,North,-999,-999.0,-999.0,13,0.00,,,-99.99,,2013-05-30 19:32:00,
2013-05-30 12:42:00,88.0,32.0,-100.00,North,-999,-999.0,-999.0,13,0.00,,,-99.99,,2013-05-30 19:42:00,
2013-05-30 12:52:00,88.0,32.0,-100.00,North,-999,-999.0,-999.0,13,0.00,,,-99.99,,2013-05-30 19:52:00,
2013-05-30 13:00:00,91.0,28.0,-100.00,North,-999,-999.0,-999.0,10,0.00,,,-99.99,,2013-05-30 20:00:00,
2013-05-30 13:23:00,91.0,28.0,-100.00,North,-999,-999.0,-999.0,10,0.00,,,-99.99,,2013-05-30 20:23:00,
2013-05-30 13:33:00,91.0,28.0,-100.00,North,-999,-999.0,-999.0,10,0.00,,,-99.99,,2013-05-30 20:33:00,
2013-05-30 13:42:00,91.0,28.0,-100.00,North,-999,-999.0,-999.0,10,0.00,,,-99.99,,2013-05-30 20:42:00,
2013-05-30 13:52:00,91.0,28.0,-100.00,North,-999,-999.0,-999.0,10,0.00,,,-99.99,,2013-05-30 20:52:00,
2013-05-30 14:00:00,94.0,28.0,-100.00,North,-999,-999.0,-999.0,9,0.00,,,-99.99,,2013-05-30 21:00:00,
2013-05-30 14:22:00,94.0,28.0,-100.00,North,-999,-999.0,-999.0,9,0.00,,,-99.99,,2013-05-30 21:22:00,
2013-05-30 14:33:00,94.0,28.0,-100.00,North,-999,-999.0,-999.0,9,0.00,,,-99.99,,2013-05-30 21:33:00,
2013-05-30 14:43:00,94.0,28.0,-100.00,North,-999,-999.0,-999.0,9,0.00,,,-99.99,,2013-05-30 21:43:00,
2013-05-30 14:53:00,94.0,28.0,-100.00,North,-999,-999.0,-999.0,9,0.00,,,-99.99,,2013-05-30 21:53:00,
2013-05-30 15:00:00,94.0,28.0,-100.00,North,-999,-999.0,-999.0,9,0.00,,,-99.99,,2013-05-30 22:00:00,
2013-05-30 15:23:00,94.0,28.0,-100.00,North,-999,-999.0,-999.0,9,0.00,,,-99.99,,2013-05-30 22:23:00,
2013-05-30 15:33:00,94.0,28.0,-100.00,North,-999,-999.0,-999.0,9,0.00,,,-99.99,,2013-05-30 22:33:00,
2013-05-30 15:42:00,94.0,28.0,-100.00,North,-999,-999.0,-999.0,9,0.00,,,-99.99,,2013-05-30 22:42:00,
2013-05-30 15:52:00,94.0,28.0,-100.00,North,-999,-999.0,-999.0,9,0.00,,,-99.99,,2013-05-30 22:52:00,
2013-05-30 16:00:00,93.0,29.0,-100.00,North,-999,-999.0,-999.0,10,0.00,,,-99.99,,2013-05-30 23:00:00,
2013-05-30 16:22:00,93.0,29.0,-100.00,North,-999,-999.0,-999.0,10,0.00,,,-99.99,,2013-05-30 23:22:00,
2013-05-30 16:32:00,93.0,29.0,-100.00,North,-999,-999.0,-999.0,10,0.00,,,-99.99,,2013-05-30 23:32:00,
2013-05-30 16:42:00,93.0,29.0,-100.00,North,-999,-999.0,-999.0,10,0.00,,,-99.99,,2013-05-30 23:42:00,
2013-05-30 16:52:00,93.0,29.0,-100.00,North,-999,-999.0,-999.0,10,0.00,,,-99.99,,2013-05-30 23:52:00,
2013-05-30 17:00:00,93.0,30.0,-100.00,North,-999,-999.0,-999.0,10,0.00,,,-99.99,,2013-05-31 00:00:00,
2013-05-30 17:22:00,93.0,30.0,-100.00,North,-999,-999.0,-999.0,10,0.00,,,-99.99,,2013-05-31 00:22:00,
2013-05-30 17:32:00,93.0,30.0,-100.00,North,-999,-999.0,-999.0,10,0.00,,,-99.99,,2013-05-31 00:32:00,
2013-05-30 17:42:00,93.0,30.0,-100.00,North,-999,-999.0,-999.0,10,0.00,,,-99.99,,2013-05-31 00:42:00,
2013-05-30 17:52:00,93.0,30.0,-100.00,North,-999,-999.0,-999.0,10,0.00,,,-99.99,,2013-05-31 00:52:00,
2013-05-30 18:00:00,88.0,27.0,-100.00,North,-999,-999.0,-999.0,11,0.00,,,-99.99,,2013-05-31 01:00:00,
2013-05-30 18:21:00,88.0,27.0,-100.00,North,-999,-999.0,-999.0,11,0.00,,,-99.99,,2013-05-31 01:21:00,
2013-05-30 18:32:00,88.0,27.0,-100.00,North,-999,-999.0,-999.0,11,0.00,,,-99.99,,2013-05-31 01:32:00,
2013-05-30 18:42:00,88.0,27.0,-100.00,North,-999,-999.0,-999.0,11,0.00,,,-99.99,,2013-05-31 01:42:00,
2013-05-30 18:52:00,88.0,27.0,-100.00,North,-999,-999.0,-999.0,11,0.00,,,-99.99,,2013-05-31 01:52:00,
2013-05-30 19:00:00,84.0,27.0,-100.00,North,-999,-999.0,-999.0,12,0.00,,,-99.99,,2013-05-31 02:00:00,
2013-05-30 19:22:00,84.0,27.0,-100.00,North,-999,-999.0,-999.0,12,0.00,,,-99.99,,2013-05-31 02:22:00,
2013-05-30 19:32:00,84.0,27.0,-100.00,North,-999,-999.0,-999.0,12,0.00,,,-99.99,,2013-05-31 02:32:00,
2013-05-30 19:42:00,84.0,27.0,-100.00,North,-999,-999.0,-999.0,12,0.00,,,-99.99,,2013-05-31 02:42:00,
2013-05-30 19:52:00,84.0,27.0,-100.00,North,-999,-999.0,-999.0,12,0.00,,,-99.99,,2013-05-31 02:52:00,
2013-05-30 20:00:00,80.0,27.0,-100.00,North,-999,-999.0,-999.0,14,0.00,,,-99.99,,2013-05-31 03:00:00,
2013-05-30 20:22:00,80.0,27.0,-100.00,North,-999,-999.0,-999.0,14,0.00,,,-99.99,,2013-05-31 03:22:00,
2013-05-30 20:33:00,80.0,27.0,-100.00,North,-999,-999.0,-999.0,14,0.00,,,-99.99,,2013-05-31 03:33:00,
2013-05-30 20:43:00,80.0,27.0,-100.00,North,-999,-999.0,-999.0,14,0.00,,,-99.99,,2013-05-31 03:43:00,
2013-05-30 20:53:00,80.0,27.0,-100.00,North,-999,-999.0,-999.0,14,0.00,,,-99.99,,2013-05-31 03:53:00,
2013-05-30 21:00:00,74.0,26.0,-100.00,North,-999,-999.0,-999.0,16,0.00,,,-99.99,,2013-05-31 04:00:00,
2013-05-30 21:23:00,74.0,26.0,-100.00,North,-999,-999.0,-999.0,16,0.00,,,-99.99,,2013-05-31 04:23:00,
2013-05-30 21:33:00,74.0,26.0,-100.00,North,-999,-999.0,-999.0,16,0.00,,,-99.99,,2013-05-31 04:33:00,
2013-05-30 22:22:00,69.0,30.0,-100.00,North,-999,-999.0,-999.0,22,0.00,,,-99.99,,2013-05-31 05:22:00,
2013-05-30 22:32:00,69.0,30.0,-100.00,North,-999,-999.0,-999.0,22,0.00,,,-99.99,,2013-05-31 05:32:00,
2013-05-30 23:22:00,68.0,31.0,-100.00,North,-999,-999.0,-999.0,25,0.00,,,-99.99,,2013-05-31 06:22:00,
2013-05-30 23:32:00,68.0,31.0,-100.00,North,-999,-999.0,-999.0,25,0.00,,,-99.99,,2013-05-31 06:32:00,